This is the latest recevied weather packets stored in our database for station/object AE5PL. If no packets are shown the sender has not sent any weather packets the latest 10 day(s).
| Time | Temp. | Humidity | Pressure | Rain* | Wind** | Luminosity | Snow |
|---|---|---|---|---|---|---|---|
| 1777669304 | 18.33° C | 57% | 1015.5 hPa | 0.51 mm | - | - | - |
| 1777669004 | 18.33° C | 57% | 1015.7 hPa | 0.51 mm | - | - | - |
| 1777668704 | 18.33° C | 60% | 1015.8 hPa | 0.51 mm | - | - | - |
| 1777668404 | 18.33° C | 60% | 1015.9 hPa | 0.51 mm | - | - | - |
| 1777668104 | 17.78° C | 61% | 1016.2 hPa | 0.51 mm | - | - | - |
| 1777667804 | 17.78° C | 61% | 1016.3 hPa | 0.51 mm | - | - | - |
| 1777667504 | 17.78° C | 60% | 1016.2 hPa | 0.51 mm | - | - | - |
| 1777667204 | 17.78° C | 61% | 1016.2 hPa | 0.51 mm | - | - | - |
| 1777666904 | 17.78° C | 60% | 1016.2 hPa | 0.51 mm | - | - | - |
| 1777666604 | 17.78° C | 59% | 1016.1 hPa | 0.51 mm | - | - | - |
| 1777666304 | 17.78° C | 59% | 1016.1 hPa | 0.51 mm | - | - | - |
| 1777666004 | 17.78° C | 60% | 1015.8 hPa | 0.51 mm | - | - | - |
| 1777665704 | 17.78° C | 59% | 1016 hPa | 0.51 mm | - | - | - |
| 1777665404 | 17.78° C | 59% | 1015.5 hPa | 0.51 mm | - | - | - |
| 1777665104 | 17.78° C | 58% | 1015.7 hPa | 0.51 mm | - | - | - |
| 1777664804 | 17.78° C | 58% | 1015.8 hPa | 0.51 mm | - | - | - |
| 1777664504 | 17.78° C | 60% | 1015.6 hPa | 0.51 mm | - | - | - |
| 1777664204 | 17.78° C | 58% | 1015.5 hPa | 0.51 mm | - | - | - |
| 1777663904 | 17.78° C | 59% | 1015.5 hPa | 0.51 mm | - | - | - |
| 1777663604 | 17.78° C | 58% | 1015.5 hPa | 0.51 mm | - | - | - |
| 1777663304 | 17.78° C | 58% | 1015.7 hPa | 0.51 mm | - | - | - |
| 1777663004 | 17.78° C | 59% | 1015.9 hPa | 0.51 mm | - | - | - |
| 1777662704 | 17.78° C | 60% | 1015.9 hPa | 0.51 mm | - | - | - |
| 1777662404 | 18.33° C | 58% | 1015.7 hPa | 0.51 mm | - | - | - |
| 1777662104 | 18.33° C | 60% | 1015.6 hPa | 0.51 mm | - | - | - |
* Rain latest 24 hours (hover to see other rain measurements)
** Current wind speed in m/s (hover to see current wind gust speed)